SL-16 DEB, 22347

Orbit data source: Space-Track

SL-16 DEB, 22347 is space debris in LEO originally from a launch on Fri, 25 Dec 1992 UTC launched from the Tyuratam Missile And Space Complex (TTMTR). Debris objects in space refer to the collection of defunct objects orbiting the Earth. Examples of debris include non-operational satellites, rocket bodies, and fragments generated from explosions, collisions, or faulty payload assembly.

Loading next visibility...
Identifier
22347, 1992-093AL
Orbit
LEO
Country
Flag of CISCIS
Related business
Manufacturer
Unknown
Mission
Spacecraft
Bus & Motor
Unknown
Mass
Unknown
Launch date (UTC)
1992-12-25 (33 years ago)
Launch vehicle
Unknown
Launch site
Tyuratam Missile And Space Complex (TTMTR)
Object type
Payload
Rocket body
Debris
Shape & HBR
Unknown shape, 0.1 m
Radar Cross Section
Small (<0.1 m²)

Expand to show TLE details & history
Last TLE update: 13 hours ago

TLE from 13 hours ago
0 SL-16 DEB
1 22347U 92093AL  26036.94947929  .00002796  00000-0  15258-2 0  9998
2 22347  70.8381 356.0535 0161945 217.9664 200.7744 14.06494298671684
Epoch: 2026-02-05T22:47Z
TLE epoch observation values (Epoch: 2026-02-05T22:47:15.010Z)
Latitude
53.42007°
Longitude
-94.0902°
Altitude
989.603 km
Speed
7.306 km/s
True Right ascension
01h 35m 16s
True Declination
53° 15' 38"
Sunlit
Object was in daylight at epoch
Visualization orbit readout
Latitude
Unknown
Longitude
Unknown
Altitude
Unknown
Speed
Unknown
Apparent Right ascension
Unknown
Apparent Declination
Unknown
Sunlit
N/A
Visualization observer readout
Local Sidereal Time
13:54:12
Azimuth
Unknown
Elevation
Unknown
Doppler factor
Unknown
Orbital elements
Apogee altitude
986.711 km
Perigee altitude
751.972 km
Semi-major axis
7,247.478 km
Eccentricity
0.01619
Inclination
70.8381°
RAAN
356.0535°
Arg. of periapsis
217.9664°
True anomaly
200.12843°
Mean anomaly
200.7744°
Eccentric anomaly
200.45021°
Mean motion
3.51773 °/min
Orbital period
102.34 mins
BSTAR
0.0015258
Loading maneuver chart data...
Computing Atmospheric mass density...
Loading historical data...
Loading historical data...
Loading historical data...
Loading historical data...
Loading historical data...
Loading historical data...
Loading historical data...

Documentation

Showing up to 5 results
|